Tracking 31027 objects as of 19-Jul-2025
HD Live streaming from Space Station
objects crossing your sky now

ONEWEB-0511

Track ONEWEB-0511 now!
10-day predictions
ONEWEB-0511 is classified as:


NORAD ID: 54129
Int'l Code: 2022-138S
Perigee: 1,191.5 km
Apogee: 1,194.3 km
Inclination: 87.9 °
Period: 109.1 minutes
Semi major axis: 7563 km
RCS: Unknown
Launch date: October 22, 2022
Source: United Kingdom (UK)
Launch site: SRIHARIKOTA (SRI)
Your satellite tracking list
GEOTAIL
Track 1 satellite(s)




NASA's NSSDC Master Catalog

Two Line Element Set (TLE):
1 54129U 22138S   25199.49489034  .00000136  00000-0  30678-3 0  9991
2 54129  87.9217  11.2782 0001877 101.8175 258.3168 13.19725606132823
Source of the keplerian elements: AFSPC